Weather History for Chicopee, MA

Change the Weather History Date:

Tuesday, November 20, 2012

  Actual Average Record
Temperature  
Mean Temperature 1 °C -  
Max Temperature 9 °C 7 °C 19 °C (2011)
Min Temperature -7 °C -2 °C -8 °C (2013)
Degree Days  
Heating Degree Days 31    
Moisture  
Dew Point -5 °C    
Average Humidity 86    
Maximum Humidity 100    
Minimum Humidity 43    
Precipitation  
Precipitation 0.00 mm - - ()
Sea Level Pressure  
Sea Level Pressure 1023 hPa    
Wind  
Wind Speed 2 km/h (North)    
Max Wind Speed 10 km/h    
Max Gust Speed -    
Visibility 8 kilometers    
Events      
Averages and records for this station are not official NWS values.
T = Trace of Precipitation, MM = Missing Value Source: NWS Daily Summary

Daily Weather History Graph

Daily Weather History Graph

Search for Another Location

Airport:

Trip Planner

Search our weather history database for the weather conditions in past years. The results will help you decide how hot, cold, wet, or windy it might be!

Date:

Astronomy

Nov. 20, 2012 Rise Set
Actual Time 6:47 AM EST 4:24 PM EST
Civil Twilight 6:16 AM EST 4:54 PM EST
Nautical Twilight 5:42 AM EST 5:29 PM EST
Astronomical Twilight 5:09 AM EST 6:02 PM EST
Moon 12:16 PM EST (11/20) 11:57 PM EST (11/20)
Length of Visible Light 10h 38m
Length of Day
9h 37m
Waxing Crescent, 51% of the Moon is Illuminated
Nov 20
Waxing Crescent
Nov 28
Full
Dec 6
Last Quarter
Dec 13
New
Dec 20
First Quarter

Hourly Weather History & Observations

Time (EST) Temp. Windchill Dew Point Humidity Pressure Visibility Wind Dir Wind Speed Gust Speed Precip Events Conditions
12:36 AM -5.0 °C - -6.0 °C 93% 1024.8 hPa 4.0 km Calm Calm - N/A   Clear
12:37 AM -5.0 °C - -6.0 °C 93% 1024.8 hPa 3.2 km Calm Calm - N/A   Clear
12:38 AM -5.0 °C - -6.0 °C 93% 1024.7 hPa 2.8 km Calm Calm - N/A   Clear
12:39 AM -5.0 °C - -6.0 °C 93% 1024.7 hPa 2.4 km Calm Calm - N/A   Clear
12:43 AM -5.0 °C - -5.0 °C 100% 1024.7 hPa 2.0 km Calm Calm - N/A   Clear
12:45 AM -4.0 °C - -5.0 °C 93% 1024.7 hPa 2.4 km Calm Calm - N/A   Clear
12:49 AM -5.0 °C - -6.0 °C 93% 1024.7 hPa 2.0 km Calm Calm - N/A   Clear
12:51 AM -5.0 °C - -6.0 °C 93% 1024.6 hPa 1.6 km Calm Calm - N/A   Clear
12:55 AM -4.8 °C - -5.5 °C 95% 1024.6 hPa 1.6 km Calm Calm - N/A   Clear
12:56 AM -5.0 °C - -5.0 °C 100% 1024.6 hPa 2.0 km Calm Calm - N/A   Clear
12:57 AM -5.0 °C - -5.0 °C 100% 1024.6 hPa 2.4 km Calm Calm - N/A   Clear
12:58 AM -5.0 °C - -5.0 °C 100% 1024.6 hPa 2.8 km Calm Calm - N/A   Clear
12:59 AM -5.0 °C - -5.0 °C 100% 1024.6 hPa 3.2 km Calm Calm - N/A   Clear
1:00 AM -5.0 °C - -6.0 °C 93% 1024.6 hPa 4.8 km Calm Calm - N/A   Clear
1:55 AM -4.6 °C -7.1 °C -5.5 °C 94% 1024.4 hPa 11.3 km North 5.6 km/h / 1.5 m/s - N/A   Clear
2:46 AM -4.0 °C - -5.0 °C 93% 1024.3 hPa 4.0 km Calm Calm - N/A   Clear
2:50 AM -5.0 °C - -6.0 °C 93% 1024.3 hPa 3.2 km Calm Calm - N/A   Clear
2:55 AM -5.0 °C - -5.8 °C 94% 1024.2 hPa 2.8 km Calm Calm - N/A   Clear
2:56 AM -5.0 °C - -6.0 °C 93% 1024.2 hPa 3.2 km Calm Calm - N/A   Clear
2:59 AM -5.0 °C - -6.0 °C 93% 1024.2 hPa 4.0 km Calm Calm - N/A   Clear
3:00 AM -5.0 °C - -6.0 °C 93% 1024.2 hPa 4.8 km Calm Calm - N/A   Clear
3:12 AM -6.0 °C - -7.0 °C 93% 1024.0 hPa 4.0 km Calm Calm - N/A   Clear
3:13 AM -6.0 °C - -7.0 °C 93% 1024.0 hPa 3.2 km Calm Calm - N/A   Clear
3:14 AM -6.0 °C - -7.0 °C 93% 1024.0 hPa 2.8 km Calm Calm - N/A   Clear
3:15 AM -6.0 °C - -7.0 °C 93% 1024.0 hPa 2.4 km Calm Calm - N/A   Clear
3:17 AM -6.0 °C - -7.0 °C 93% 1024.0 hPa 2.0 km Calm Calm - N/A   Clear
3:18 AM -6.0 °C - -6.0 °C 100% 1024.0 hPa 2.0 km Calm Calm - N/A   Clear
3:22 AM -5.0 °C - -6.0 °C 93% 1024.0 hPa 2.4 km Calm Calm - N/A   Clear
3:26 AM -5.0 °C - -6.0 °C 93% 1023.8 hPa 2.8 km Calm Calm - N/A   Clear
3:28 AM -5.0 °C - -6.0 °C 93% 1023.8 hPa 3.2 km Calm Calm - N/A   Clear
3:30 AM -5.0 °C - -6.0 °C 93% 1023.8 hPa 4.0 km Calm Calm - N/A   Clear
3:32 AM -5.0 °C -7.5 °C -6.0 °C 93% 1023.8 hPa 4.8 km North 5.6 km/h / 1.5 m/s - N/A   Clear
3:55 AM -6.2 °C -8.9 °C -7.1 °C 93% 1023.6 hPa 16.1 km NNE 5.6 km/h / 1.5 m/s - N/A   Clear
4:55 AM -4.8 °C - -5.6 °C 94% 1023.1 hPa 16.1 km Calm Calm - N/A   Clear
5:55 AM -6.0 °C - -6.9 °C 93% 1023.1 hPa 16.1 km Calm Calm - N/A   Clear
6:55 AM -5.2 °C - -6.0 °C 94% 1023.6 hPa 16.1 km Calm Calm - N/A   Clear
7:55 AM -3.8 °C - -4.5 °C 95% 1023.8 hPa 16.1 km Calm Calm - N/A   Clear
8:55 AM -0.6 °C -3.2 °C -0.9 °C 98% 1023.3 hPa 16.1 km NE 7.4 km/h / 2.1 m/s - N/A   Clear
9:55 AM 2.9 °C 0.4 °C -2.9 °C 66% 1023.0 hPa 16.1 km North 9.3 km/h / 2.6 m/s - N/A   Clear
10:55 AM 5.4 °C 3.8 °C -3.4 °C 53% 1022.6 hPa 16.1 km North 7.4 km/h / 2.1 m/s - N/A   Clear
11:55 AM 7.0 °C 6.2 °C -2.8 °C 50% 1021.4 hPa 16.1 km Variable 5.6 km/h / 1.5 m/s - N/A   Clear
12:55 PM 9.1 °C - -2.4 °C 45% 1020.9 hPa 16.1 km WNW 7.4 km/h / 2.1 m/s - N/A   Scattered Clouds
1:55 PM 9.4 °C - -2.5 °C 43% 1020.6 hPa 16.1 km NW 7.4 km/h / 2.1 m/s - N/A   Clear
2:55 PM 9.4 °C - -2.8 °C 43% 1020.6 hPa 16.1 km NNW 9.3 km/h / 2.6 m/s - N/A   Partly Cloudy
3:55 PM 8.2 °C - -3.1 °C 45% 1020.6 hPa 16.1 km North 9.3 km/h / 2.6 m/s - N/A   Clear
4:55 PM 5.2 °C 4.1 °C -3.0 °C 56% 1020.8 hPa 16.1 km North 5.6 km/h / 1.5 m/s - N/A   Clear
5:55 PM 4.2 °C 3.0 °C -2.8 °C 61% 1021.0 hPa 16.1 km NE 5.6 km/h / 1.5 m/s - N/A   Clear
6:55 PM 3.6 °C - -2.8 °C 63% 1021.1 hPa 16.1 km Calm Calm - N/A   Clear
7:55 PM 1.9 °C - -1.5 °C 78% 1021.3 hPa 16.1 km Calm Calm - N/A   Clear
8:55 PM 1.1 °C - -2.5 °C 77% 1021.5 hPa 16.1 km Calm Calm - N/A   Partly Cloudy
9:55 PM -0.8 °C -2.7 °C -2.9 °C 86% 1021.4 hPa 16.1 km NNE 5.6 km/h / 1.5 m/s - N/A   Partly Cloudy
10:55 PM -0.9 °C - -2.8 °C 87% 1021.8 hPa 16.1 km Calm Calm - N/A   Clear
11:55 PM -2.1 °C -4.2 °C -3.2 °C 92% 1021.7 hPa 16.1 km NE 5.6 km/h / 1.5 m/s - N/A   Clear